Weather Roundup
Issued by NWS Springfield, MO

Home | Current Version | Previous Version | Text Only | Print | Product List | Glossary On
Versions: 1 2 3 4 5 6 7 8 9 10 11 12 13 14 15 16 17 18 19 20 21 22 23 24 25 26 27 28 29 30 31 32 33 34 35 36 37 38 39 40 41 42 43 44 45 46 47 48 49 50
000
NZUS99 KSGF 241707
HRRSGF

HOURLY WEATHER
NATIONAL WEATHER SERVICE SPRINGFIELD MO
1200 PM CDT THU APR 24 2014

......SGF CWA......

CITY           SKY/WX    TMP DP  RH WIND       PRES   REMARKS
SPRINGFIELD    CLOUDY    69  54  58 S17       29.69R
JOPLIN         LGT RAIN  72  57  59 SW28G45   29.66F
WEST PLAINS    CLOUDY    70  47  43 S15G22    29.83F
ROLLA          MOSUNNY   72  47  40 S18G24    29.74F
OSAGE BEACH    CLOUDY    66  46  48 S6        29.72F
BRANSON        CLOUDY    66  54  63 S8G20     29.72F

......SURROUNDING SGF CWA......

CITY           SKY/WX    TMP DP  RH WIND       PRES   REMARKS
CHANUTE        TSTM      62  53  72 W14G38    29.64R
PARSONS        CLOUDY    71  60  68 S18G33    29.64F
COFFEYVILLE    CLOUDY    69  61  75 S17G30    29.64S
EMPORIA        PTSUNNY   59  55  87 NW10      29.65R
GROVE OK       CLOUDY    70  61  73 S20G29    29.69F
ROGERS AR      CLOUDY    67  58  72 S14       29.73F
SILOAM SPRINGS CLOUDY    64  55  72 S16G22    29.75F
HARRISON AR    CLOUDY    64  56  75 S10       29.73F
NEAR YELLVILLE CLOUDY    68  50  52 S10G24    29.75F

......KANSAS AND MISSOURI......

CITY           SKY/WX    TMP DP  RH WIND       PRES   REMARKS
KANSAS CTY INT CLOUDY    59  56  89 S5        29.63S
DOWNTOWN KC    LGT RAIN  62  57  83 S6        29.61S
COLUMBIA       LGT RAIN  68  45  43 S7        29.73F
SEDALIA        LGT RAIN  59  53  80 E6        29.70F
ST JOSEPH      CLOUDY    59  55  87 CALM      29.65S
ST LOUIS       PTSUNNY   70  40  33 SE17G24   29.81F
SPIRIT OF STL  PTSUNNY   71  40  32 SE9G24    29.79F
KIRKSVILLE     RAIN      52  48  86 S7        29.76R FOG
WICHITA        PTSUNNY   62  47  57 NW32G43   29.76S
TOPEKA         RAIN      59  56  89 W21G35    29.72R VSB 1/4
OLATHE         LGT RAIN  58  57  97 S14       29.59F FOG

......TENNESSEE......

CITY           SKY/WX    TMP DP  RH WIND       PRES   REMARKS
MEMPHIS        CLOUDY    75  50  41 S14G23    29.90R
NASHVILLE      CLOUDY    74  39  28 VRB6G17   29.94F

......ARKANSAS.......

CITY           SKY/WX    TMP DP  RH WIND       PRES   REMARKS
FAYETTEVILLE   CLOUDY    65  58  78 S20G29    29.75F
FT SMITH       CLOUDY    63  60  90 E7        29.76F
LITTLE ROCK    PTSUNNY   77  57  50 SW12      29.86R

......OKLAHOMA.......

CITY           SKY/WX    TMP DP  RH WIND       PRES   REMARKS
TULSA          CLOUDY    72  64  76 S16G28    29.66F
PONCA CITY     PTSUNNY   65  49  56 NW23G33   29.74R
MCALESTER      CLOUDY    70  61  73 S12G21    29.76R
OKLAHOMA CITY  MOSUNNY   70  46  42 N26G39    29.78S

......IOWA............

CITY           SKY/WX    TMP DP  RH WIND       PRES   REMARKS
DES MOINES     CLOUDY    56  53  90 S3        29.66F
QUAD CITIES    CLOUDY    65  39  38 S20G28    29.74F

......ILLINOIS........

CITY           SKY/WX    TMP DP  RH WIND       PRES   REMARKS
QUINCY         CLOUDY    65  40  39 S13       29.76S
CHICAGO        CLOUDY    60  35  39 SE25G32   29.90F



USA.gov is the U.S. government's official web portal to all federal, state and local government web resources and services.